Find Starlink 11258

NORAD ID: 62598 Int'l Des: 2025-008 Owner: SPXS Country: US Constellation: starlink operational
LEOCIRCULAR

現在のビュー

3D地球を読み込み中...

About Starlink 11258

Starlink 11258 (NORAD 62598) is a starlink constellation satellite (v2 mini d2c) launched Jan 13, 2025 by SPXS of US. It operates in LEO, CIRCULAR orbit with a mass of 960.00 kg.

Starlink 11258について

説明を読み込み中...

次回通過

Passes for default location (London). Set your location on the main map for personalized predictions.

高度履歴

Loading altitude history...

軌道要素

1 62598U 25008M 26168.25077132 .00224563 00000-0 17103-2 0 9991
2 62598 42.9987 245.9496 0001354 287.9018 72.1702 15.70789860 82941
Epoch: Jun 17, 2026 • Age: 22 hours

現在のステータス

高度 356.5 km
速度 7.70 km/s
衛星直下点 -6.28°S, 97.98°E
打ち上げ日 Jan 13, 2025
運用期間 1.4 years
タイプ internet

技術仕様

分類 Payload
質量 960.00 kg
乾燥質量 910.00 kg
総質量 960.00 kg
長さ 0.30 m
直径 4.10 m
スパン 29.00 m
形状 Box + pan
製造者 SPXS
バスタイプ Starlink V2MD
フェーズステータス In Orbit
所有者/国 SPXS/US

Most Searched